HFM380 EGPF-LPBJ

Flight info

Callsign HFM380
Flight time N/A
Altitude 40000
Route NORBO DCT ROTEV DCT BANBA/N0488F410 DCT AMPOP DCT KORUL/N0389F230 N728 STG N726 NARBO UN726 EVURA DCT INLED
Aircraft A388/J-SADE2E3FGHIJ3J4J5M1RWXYZ/LB1D1

Departure

Time 2026-04-30 12:54
Airport Glasgow Airport (EGPF)

Arrival

Time N/A
Airport Beja Airport / Airbase (LPBJ)
Time Latitude Longitude Altitude Speed Heading
2026-04-30 11:47 55.86459 -4.44062 38 ft 0 kts 242°
2026-04-30 11:53 55.86452 -4.44089 37 ft 0 kts 242°
2026-04-30 12:44 55.86460 -4.44062 36 ft 4 kts 242°
2026-04-30 12:44 55.86470 -4.44026 35 ft 3 kts 243°
2026-04-30 12:45 55.86476 -4.43985 35 ft 4 kts 287°
2026-04-30 12:45 55.86462 -4.43948 33 ft 4 kts 327°
2026-04-30 12:45 55.86440 -4.43928 35 ft 4 kts 334°
2026-04-30 12:45 55.86416 -4.43906 33 ft 4 kts 333°
2026-04-30 12:46 55.86399 -4.43892 33 ft 0 kts 335°
2026-04-30 12:48 55.86401 -4.43893 33 ft 2 kts 335°
2026-04-30 12:48 55.86434 -4.43921 34 ft 7 kts 334°
2026-04-30 12:48 55.86488 -4.43970 33 ft 7 kts 332°
2026-04-30 12:49 55.86532 -4.44014 38 ft 7 kts 313°
2026-04-30 12:49 55.86542 -4.44083 38 ft 6 kts 253°
2026-04-30 12:49 55.86506 -4.44169 38 ft 12 kts 227°
2026-04-30 12:49 55.86436 -4.44301 38 ft 13 kts 226°
2026-04-30 12:50 55.86388 -4.44390 38 ft 12 kts 227°
2026-04-30 12:50 55.86331 -4.44500 38 ft 12 kts 227°
2026-04-30 12:50 55.86285 -4.44590 38 ft 11 kts 226°
2026-04-30 12:50 55.86251 -4.44681 38 ft 8 kts 272°
2026-04-30 12:51 55.86284 -4.44785 38 ft 12 kts 315°
2026-04-30 12:51 55.86337 -4.44860 39 ft 8 kts 345°
2026-04-30 12:51 55.86387 -4.44834 39 ft 9 kts 40°
2026-04-30 12:51 55.86417 -4.44774 39 ft 0 kts 49°
2026-04-30 12:53 55.86488 -4.44637 43 ft 53 kts 47°
2026-04-30 12:53 55.86931 -4.43809 40 ft 127 kts 46°
2026-04-30 12:53 55.87636 -4.42504 221 ft 154 kts 46°
2026-04-30 12:54 55.88386 -4.41185 897 ft 150 kts 48°
2026-04-30 12:54 55.89150 -4.39883 1470 ft 155 kts 50°
2026-04-30 12:54 55.89922 -4.38470 2004 ft 164 kts 51°
2026-04-30 12:54 55.90737 -4.36936 2413 ft 179 kts 52°
2026-04-30 12:55 55.91614 -4.35232 2844 ft 192 kts 54°
2026-04-30 12:55 55.92536 -4.33387 3213 ft 207 kts 49°
2026-04-30 12:55 55.93748 -4.31780 3575 ft 237 kts 33°
2026-04-30 12:55 55.95397 -4.30587 4026 ft 269 kts 18°
2026-04-30 12:56 55.97335 -4.30173 4492 ft 296 kts 355°
2026-04-30 12:56 55.99296 -4.31256 5453 ft 296 kts 329°
2026-04-30 12:56 56.00845 -4.33594 5874 ft 291 kts 303°
2026-04-30 12:56 56.01693 -4.36787 6001 ft 282 kts 276°
2026-04-30 12:57 56.01677 -4.40181 6004 ft 269 kts 249°
2026-04-30 12:57 56.00828 -4.43027 6007 ft 256 kts 221°
2026-04-30 12:57 55.99400 -4.44797 6004 ft 248 kts 203°
2026-04-30 12:57 55.97878 -4.46289 6000 ft 252 kts 211°
2026-04-30 12:58 55.96553 -4.48342 6010 ft 254 kts 223°
2026-04-30 12:58 55.95360 -4.50692 6001 ft 256 kts 222°
2026-04-30 12:58 55.94122 -4.52912 6008 ft 254 kts 218°
2026-04-30 12:58 55.92837 -4.55111 6190 ft 253 kts 220°
2026-04-30 12:59 55.91608 -4.57340 6269 ft 257 kts 221°
2026-04-30 12:59 55.90359 -4.59635 6268 ft 259 kts 221°
2026-04-30 12:59 55.89108 -4.61921 6264 ft 257 kts 221°
2026-04-30 12:59 55.87860 -4.64192 6260 ft 256 kts 220°
2026-04-30 13:00 55.86590 -4.66488 6261 ft 257 kts 221°
2026-04-30 13:00 55.85271 -4.68537 6256 ft 253 kts 212°
2026-04-30 13:00 55.83812 -4.70271 6260 ft 252 kts 208°
2026-04-30 13:00 55.82329 -4.71925 6261 ft 251 kts 208°
2026-04-30 13:01 55.80837 -4.73568 6257 ft 254 kts 208°
2026-04-30 13:01 55.79255 -4.74909 6259 ft 248 kts 193°
2026-04-30 13:01 55.77562 -4.75356 6250 ft 247 kts 180°
2026-04-30 13:01 55.75837 -4.75281 6368 ft 250 kts 178°
2026-04-30 13:02 55.74107 -4.75305 6941 ft 253 kts 180°
2026-04-30 13:02 55.72342 -4.75400 8066 ft 250 kts 180°
2026-04-30 13:02 55.70622 -4.75507 9058 ft 252 kts 180°
2026-04-30 13:02 55.68853 -4.75617 10033 ft 256 kts 180°
2026-04-30 13:03 55.67043 -4.75731 10732 ft 268 kts 180°
2026-04-30 13:03 55.65104 -4.75853 11042 ft 291 kts 180°
2026-04-30 13:03 55.63005 -4.75983 11369 ft 310 kts 180°
2026-04-30 13:03 55.60835 -4.76267 12080 ft 316 kts 186°
2026-04-30 13:04 55.58679 -4.77175 12834 ft 322 kts 195°
2026-04-30 13:04 55.56591 -4.78732 13620 ft 329 kts 203°
2026-04-30 13:04 55.54540 -4.80571 14320 ft 333 kts 203°
2026-04-30 13:04 55.52455 -4.82397 15017 ft 336 kts 203°
2026-04-30 13:05 55.50347 -4.84222 15698 ft 339 kts 203°
2026-04-30 13:05 55.48213 -4.86063 16373 ft 342 kts 203°
2026-04-30 13:05 55.46061 -4.87917 17017 ft 346 kts 203°
2026-04-30 13:06 55.41691 -4.91680 18353 ft 352 kts 204°
2026-04-30 13:06 55.39478 -4.93583 18940 ft 355 kts 203°
2026-04-30 13:06 55.37279 -4.95472 19496 ft 358 kts 203°
2026-04-30 13:06 55.35005 -4.97422 20075 ft 360 kts 203°
2026-04-30 13:07 55.32778 -4.99329 20631 ft 362 kts 203°
2026-04-30 13:07 55.30505 -5.01274 21161 ft 365 kts 202°
2026-04-30 13:07 55.28217 -5.03228 21705 ft 367 kts 202°
2026-04-30 13:07 55.25875 -5.05226 22240 ft 370 kts 202°
2026-04-30 13:08 55.23585 -5.07177 22790 ft 372 kts 202°